sat.trackr.live / text

‹ back to catalog

STARLINK-35273

NORAD 65805 · 2025-218Q

PAYLOAD ACTIVE UNKNOWN

§ Identity

Operator
Country
US
Launch date
2025-09-26
Launch site
AFWTR
Launch vehicle
Mass (kg)
RCS (m²)

Purposes: comms

External: N2YO · Heavens-Above · Gunter

§ Orbital elements

Epoch: 2026-09-20T11:56:16.607616Z

Period
93.91 min
Inclination
97.2847°
Eccentricity
0.0001705
Mean motion
15.33460642 rev/d
Perigee alt
464.3 km
Apogee alt
466.7 km
Semi-major
6,843.6 km
B*
6.5015e-4
RAAN
120.8766°
Arg perigee
91.2386°
Mean anomaly
268.9052°
Rev number
5,433

§ Raw data

STARLINK-352731 65805U 25218Q   26263.49741444  .00020983  00000+0  65015-3 0  99992 65805  97.2847 120.8766 0001705  91.2386 268.9052 15.33460642 54336

JSON: /api/v1/satellites/65805 · /tle

For live sub-satellite position, see the globe view (requires WebGL).

§ Visibility from observer

Set your observer location to see the next 7 days of passes ≥ 10°. The values pass through the URL so the page stays shareable.

No JS? Fill the form by hand. The geolocation button needs JavaScript.